Powrót do katalogu

ONEWEB-0336

AktywnyŁącznośćPO
NORAD 49202·PAYLOAD·🇬🇧 United Kingdom

Wystrzelony Sep 14, 2021 z Baikonur Cosmodrome

Loading…

Następne Przeloty (najbliższe 24 godziny)

TLE

ŚwieżeSource: CelesTrak SupGP

Epoka: Sep 14, 2026, 15:15 UTC

1 49202C 21083S   26257.63593009 -.00000408  00000+0 -11192-2 0  2574
2 49202  87.8916 302.4299 0001998 106.6884 352.4467 13.13469207    15

Śledź ONEWEB-0336 w czasie rzeczywistym z AllMySat

Download on the App Store